Home   Weather   France   Tarbes   Past weeks
Flag for France

Past Weather in Tarbes, Hautes-Pyrénées, France — Yesterday and Last 2 Weeks

Currently: 39 °F. Mostly cloudy. (Weather station: Tarbes / Ossun, France). See more current weather

Past Weather in Tarbes — Graph

°F

Tarbes Temperature Yesterday

Maximum temperature yesterday: 41 °F (at 12:00 am)
Minimum temperature yesterday: 34 °F (at 5:30 am)
Average temperature yesterday: 38 °F

High & Low Weather Summary for the Past Weeks

 TemperatureHumidityPressure
High63 °F (Nov 17, 12:00 pm)100% (Nov 17, 8:00 am)30.45 "Hg (Nov 17, 8:00 am)
Low34 °F (Nov 30, 8:30 am)48% (Nov 26, 3:00 pm)29.56 "Hg (Nov 23, 5:30 am)
Average47 °F87%30.02 "Hg
* Reported Nov 17 2:00 am — Dec 2 2:30 am, Tarbes. Weather by CustomWeather, © 2022

Note: Actual official high and low records may vary slightly from our data, if they occured in-between our weather recording intervals... More about our weather records

Tarbes Weather History for the Previous 24 Hours

Scroll right to see more
 ConditionsComfort  
Time TempWeatherWind HumidityBarometerVisibility
2:30 am
Fri, Dec 2
39 °FOvercast.No wind93%30.07 "HgN/A
2:00 am39 °FOvercast.2 mph87%30.09 "HgN/A
12:30 am39 °FOvercast.3 mph93%30.09 "HgN/A
12:00 am39 °FOvercast.3 mph93%30.09 "Hg5 mi
11:00 pm
Thu, Dec 1
39 °FOvercast.3 mph87%30.09 "HgN/A
10:30 pm39 °FOvercast.2 mph93%30.09 "HgN/A
10:00 pm39 °FOvercast.2 mph93%30.09 "HgN/A
9:00 pm41 °FOvercast.2 mph87%30.09 "HgN/A
8:30 pm39 °FOvercast.3 mph93%30.09 "HgN/A
8:00 pm39 °FOvercast.2 mph93%30.09 "HgN/A
7:30 pm39 °FOvercast.2 mph93%30.12 "Hg6 mi
7:00 pm39 °FOvercast.2 mph93%30.09 "Hg5 mi
6:30 pm39 °FOvercast.2 mph93%30.09 "Hg4 mi
6:00 pm39 °FLow clouds.3 mph93%30.09 "Hg4 mi
5:30 pm39 °FLow clouds.3 mph93%30.09 "HgN/A
5:00 pm39 °FLow clouds.3 mph93%30.09 "HgN/A
4:30 pm39 °FLow clouds.5 mph93%30.09 "HgN/A
4:00 pm39 °FLow clouds.3 mph93%30.09 "HgN/A
3:30 pm39 °FLow clouds.3 mph93%30.09 "HgN/A
3:00 pm39 °FLow clouds.5 mph93%30.09 "HgN/A
2:00 pm39 °FLow clouds.3 mph93%30.12 "HgN/A
1:30 pm39 °FLow clouds.5 mph93%30.12 "HgN/A
1:00 pm39 °FLow clouds.7 mph93%30.12 "HgN/A
12:30 pm39 °FLow clouds.2 mph93%30.12 "Hg4 mi
12:00 pm37 °FLow clouds.2 mph100%30.12 "Hg4 mi
11:30 am37 °FLow clouds.2 mph93%30.12 "Hg4 mi
11:00 am36 °FFog.3 mph100%30.12 "Hg3 mi
10:30 am36 °FFog.2 mph100%30.12 "Hg2 mi
10:00 am34 °FFog.3 mph100%30.12 "Hg1 mi
9:00 am34 °FLow clouds.6 mph100%30.09 "Hg4 mi
8:30 am36 °FFog.2 mph93%30.12 "Hg3 mi
8:00 am36 °FFog.5 mph93%30.09 "Hg3 mi
7:00 am36 °FFog.3 mph100%30.09 "Hg3 mi
6:30 am34 °FFog.8 mph100%30.09 "Hg1 mi
6:00 am34 °FLow clouds.6 mph100%30.09 "Hg5 mi
5:30 am34 °FFog.7 mph100%30.09 "Hg2 mi
5:00 am36 °FFog.6 mph100%30.09 "Hg3 mi
4:30 am36 °FFog.5 mph100%30.07 "Hg2 mi
4:00 am37 °FLow clouds.2 mph93%30.07 "Hg4 mi
Weather by CustomWeather, © 2022

See weather overview